Wind_Speed
18 20 23 20 14 15 16 16 20 17 11 6 2 1 3 2 4 1 2 16 14 11 11 10 10 9 9 8 6 6 6 7 7 7 7 8 7 8 7 7 7 7 6 6 6 6 6 6 6
16 16 17 19 15 16 14 18 17 19 17 9 3 2 2 8 9 7 3 15 16 11 9 9 8 8 8 7 6 7 6 6 6 6 7 8 7 6 6 5 5 5 5 8 4 5 5 5 5
11 11 10 7 10 11 11 17 19 19 15 8 7 4 8 13 8 8 11 13 14 12 9 8 7 7 6 7 5 6 6 6 6 5 6 6 6 6 5 3 3 3 4 6 5 4 3 4 4
8 8 7 11 10 10 12 15 16 18 20 14 8 10 12 12 11 11 13 14 13 11 10 8 6 6 6 6 5 5 6 6 6 5 5 5 5 5 5 4 3 2 2 3 3 7 5 2 5
6 8 7 7 7 7 7 12 12 17 20 20 13 11 11 13 12 12 13 13 12 11 9 8 6 5 6 5 4 5 5 6 6 6 5 4 4 4 3 3 3 1 2 2 2 3 4 4 6
7 7 4 3 3 4 4 7 12 12 18 20 16 13 10 13 13 13 13 13 14 11 8 7 6 5 5 5 3 2 4 5 5 5 5 4 3 3 2 2 3 2 2 3 3 3 3 6 5
7 4 4 3 2 2 3 4 6 10 14 18 17 15 13 9 10 12 12 13 13 12 9 7 6 4 4 5 5 2 3 5 6 5 5 5 3 2 2 1 1 2 2 2 2 3 3 5 4
7 3 3 4 3 3 0 2 4 6 8 14 17 15 14 12 9 10 12 11 11 11 9 7 6 5 4 3 4 6 5 4 4 5 5 5 4 3 2 1 1 2 3 2 2 3 3 3 4
7 5 5 4 5 4 2 3 4 6 7 8 13 14 15 14 12 12 10 10 9 9 7 6 5 4 5 5 5 5 6 6 4 4 3 3 3 1 0 1 1 2 3 4 4 3 3 3 3
10 7 4 5 3 3 3 1 3 7 10 8 7 11 14 14 12 12 10 8 7 6 5 4 5 5 5 6 6 7 7 7 7 6 6 5 4 3 4 3 4 3 3 4 5 4 4 4 4
12 8 4 2 3 4 5 4 2 7 10 12 8 8 11 12 12 12 9 8 7 5 5 5 6 8 9 8 9 10 11 11 11 11 10 9 8 7 6 6 6 6 6 5 5 5 6 6 6
9 6 6 1 2 2 6 4 5 3 7 11 13 7 8 10 11 11 8 7 4 3 5 6 8 11 12 13 14 15 15 14 14 14 12 12 10 9 9 9 8 7 9 7 7 7 6 7 8
7 6 5 1 2 3 2 4 7 0 2 6 11 10 6 8 9 10 9 8 5 2 3 1 14 8 13 15 19 20 17 17 17 16 14 14 13 13 13 13 12 9 11 11 11 10 10 9 9
5 4 2 2 2 1 2 3 4 3 3 2 5 9 6 7 9 10 8 8 5 3 3 3 7 18 5 17 20 24 25 20 19 17 16 16 15 14 13 14 14 13 14 14 13 15 14 15 14
7 4 2 4 6 3 2 8 7 8 6 7 4 6 7 6 5 8 8 9 10 10 8 3 5 13 10 12 21 14 20 28 22 19 17 15 12 13 13 13 14 15 15 14 14 16 17 18 19
6 6 7 9 12 12 10 11 7 6 8 7 7 4 6 7 6 7 8 9 9 14 7 6 9 13 15 10 12 14 18 12 17 30 5 11 13 12 13 11 13 14 14 14 19 18 16 18 19
4 6 12 9 6 9 14 9 7 8 6 9 8 6 4 6 8 6 6 8 9 11 8 6 10 15 17 13 14 18 14 10 12 10 11 13 12 9 10 11 13 16 17 18 19 20 21 20 20
7 11 7 8 7 11 17 15 12 9 9 4 9 10 7 3 6 5 3 5 9 10 6 9 10 16 15 14 19 17 18 12 10 9 11 13 11 10 10 12 14 17 19 21 20 19 20 23 25
11 9 4 8 7 2 8 6 3 6 6 6 10 10 10 6 2 3 1 2 6 7 8 4 8 14 15 14 20 7 6 14 11 7 10 10 10 9 11 14 15 18 20 21 20 20 20 22 25
14 7 1 4 7 2 0 3 6 5 4 9 15 15 12 11 2 1 1 2 4 6 7 8 8 14 13 13 18 22 16 15 6 4 3 3 8 10 14 16 18 18 18 17 17 18 17 17 18
9 5 1 3 4 0 3 5 5 7 8 10 14 16 16 13 7 3 2 3 2 5 7 10 12 12 11 8 9 15 12 11 5 1 4 6 9 12 15 17 17 17 16 16 17 16 14 15 15
6 3 4 3 1 1 4 4 6 7 6 7 10 4 14 15 11 6 3 3 1 5 7 11 13 13 10 5 6 4 4 7 3 4 7 10 13 15 16 14 14 14 14 14 13 12 12 13 14
5 2 3 5 1 1 4 4 5 4 3 4 1 7 7 12 11 6 5 4 3 5 9 11 12 13 9 5 1 4 2 5 7 8 9 13 15 12 9 10 11 11 10 11 11 9 10 10 12
8 8 3 1 2 5 2 3 3 3 4 1 3 7 8 7 7 7 8 6 5 5 7 8 9 11 9 4 3 1 2 5 7 9 11 14 13 8 8 9 7 6 8 10 9 7 7 6 7
12 9 2 3 4 3 2 3 3 4 8 5 4 9 9 4 6 8 7 6 5 6 9 6 8 10 9 5 5 3 4 5 6 9 12 13 10 6 8 7 7 7 8 7 7 7 6 4 4
13 9 5 3 3 3 3 4 2 4 3 2 2 9 8 1 8 8 8 6 5 7 10 7 9 10 9 9 9 8 6 6 7 8 10 10 9 5 5 7 7 6 7 5 6 4 2 4 5
13 9 7 6 3 3 3 4 1 3 1 4 5 9 5 1 3 9 9 7 5 6 6 9 13 12 12 13 12 12 8 7 7 8 9 10 10 6 4 6 7 7 6 6 7 8 5 4 4
13 11 6 6 5 4 3 4 2 3 5 5 3 6 9 3 2 10 12 8 8 6 9 13 14 14 15 17 16 16 9 8 5 7 9 8 7 7 6 6 6 6 6 8 9 8 7 4 4
16 17 11 9 5 4 3 5 4 5 6 7 9 10 12 9 10 6 8 10 10 10 11 13 16 16 12 19 23 14 11 7 4 4 7 7 7 7 7 7 6 6 9 10 10 11 8 6 5
14 18 21 10 8 7 4 6 8 5 7 10 13 15 14 15 11 4 8 12 10 10 10 12 14 12 6 23 19 11 7 4 2 5 6 5 7 8 7 6 7 8 8 9 9 9 9 7 7
Wind_Direction
70 70 75 74 78 83 73 70 61 51 53 75 120 13 304 201 198 8 140 148 147 150 146 134 122 116 117 118 123 121 118 121 131 137 140 144 148 142 133 128 122 117 108 108 95 91 91 99 102
82 69 70 74 84 76 70 68 63 51 42 47 10 320 305 246 228 245 177 149 145 149 145 126 115 115 119 121 119 123 127 128 125 127 138 142 149 147 138 132 115 126 115 80 99 99 104 94 99
71 57 48 31 65 70 84 68 59 52 46 40 46 55 104 77 135 147 153 151 144 145 139 123 120 115 119 121 117 123 127 127 121 119 123 129 133 132 127 123 112 126 145 131 115 61 105 106 105
79 57 43 67 67 80 86 68 64 58 52 53 63 88 97 96 107 142 152 152 147 143 137 127 125 123 123 125 129 123 133 137 131 128 127 127 131 129 121 129 112 138 163 148 122 133 120 125 128
107 64 50 68 56 77 91 65 61 61 55 48 56 80 101 108 121 138 149 147 143 139 135 133 132 134 128 127 130 132 138 142 140 135 132 132 136 134 137 135 113 122 161 166 156 157 182 171 157
115 78 44 60 28 72 83 61 59 61 64 56 44 53 87 121 123 141 148 149 143 139 138 137 143 141 136 129 130 145 148 141 141 139 131 124 134 138 147 154 151 157 167 185 178 186 193 193 170
132 104 25 340 330 351 59 48 54 51 65 62 55 46 61 105 137 140 149 153 150 141 144 148 144 144 162 152 149 171 188 159 147 141 130 124 112 109 113 141 207 165 182 203 223 214 231 211 193
150 161 330 350 333 299 265 42 59 57 63 69 62 57 54 67 101 139 160 164 160 149 154 156 150 156 166 179 186 178 194 192 167 155 149 135 125 122 96 91 183 208 217 219 196 204 208 209 219
209 210 253 293 311 22 257 69 70 56 60 68 70 68 64 64 79 102 138 164 167 157 160 165 169 174 190 200 207 212 209 199 210 202 190 170 149 158 128 246 245 237 230 234 221 215 234 224 186
169 174 188 254 264 5 334 233 55 50 46 44 61 67 66 71 73 87 101 129 128 148 175 194 210 205 212 226 230 233 227 229 225 228 236 236 227 243 257 249 221 231 227 231 245 237 224 235 228
141 129 149 216 240 229 279 261 99 55 55 45 46 49 56 71 83 80 80 103 140 164 181 209 232 240 234 231 233 235 239 236 236 235 236 241 249 254 257 249 229 241 243 231 225 247 239 233 237
129 137 154 161 343 320 258 280 48 67 78 55 39 66 62 73 83 84 89 88 90 143 205 225 239 236 242 238 240 234 236 238 238 239 241 245 251 258 262 262 254 260 254 250 245 238 239 242 242
145 164 153 219 360 94 156 265 260 116 159 80 37 46 68 82 83 81 78 73 79 127 221 289 340 294 265 249 245 238 234 236 240 246 249 255 257 258 262 260 258 257 242 244 240 236 241 244 247
184 208 201 286 325 160 28 332 269 265 223 212 75 44 72 87 88 84 75 65 31 324 297 229 349 57 289 261 267 257 247 238 233 239 248 250 253 256 260 264 264 259 254 253 248 247 251 260 262
205 214 240 286 294 303 299 270 337 295 262 230 198 74 77 92 80 75 78 63 39 14 350 274 301 11 330 299 252 291 274 214 230 231 232 248 249 255 257 270 260 265 262 261 262 260 258 257 259
227 261 284 297 261 272 265 275 303 294 291 254 230 145 88 88 73 64 65 58 50 29 14 334 326 348 343 324 284 270 263 268 219 232 209 240 253 249 260 277 271 268 264 261 272 263 263 262 261
220 303 287 315 319 241 248 268 288 298 325 273 246 206 162 93 54 68 73 45 43 39 8 321 321 341 346 334 338 279 259 252 215 211 238 251 249 252 261 262 271 275 271 270 267 262 255 260 261
240 283 273 328 324 240 241 256 285 295 298 287 261 237 207 154 54 64 61 41 42 31 17 323 327 339 339 324 336 288 251 231 199 214 242 236 249 245 265 271 272 277 275 270 269 268 260 261 265
241 258 286 339 336 306 233 239 230 286 235 271 281 256 222 203 102 30 355 56 47 27 25 332 323 346 337 336 2 360 178 191 192 237 266 242 249 273 275 275 278 278 276 276 274 274 271 266 262
237 223 327 0 4 358 96 230 230 265 305 276 274 259 234 219 214 74 52 0 38 21 9 352 343 350 340 1 52 48 82 120 138 13 218 223 287 283 284 284 281 283 280 279 277 282 278 269 268
209 193 269 334 350 294 252 247 228 286 298 292 297 278 237 221 216 176 14 354 341 360 357 347 348 349 345 7 63 86 87 89 107 331 327 309 303 300 292 287 283 282 282 284 285 283 279 273 266
181 238 224 215 299 338 350 287 301 300 295 321 325 235 184 201 215 228 268 297 315 338 341 348 352 351 356 353 37 129 134 141 33 358 334 320 311 301 295 294 292 292 295 297 295 286 284 275 267
201 146 149 162 168 61 279 289 273 270 340 344 54 147 165 186 207 200 258 261 283 318 343 341 346 345 349 323 4 67 91 284 325 338 332 322 318 311 309 303 308 307 305 306 301 298 290 279 266
193 176 183 241 276 242 273 208 217 310 316 203 152 162 177 178 198 224 241 249 266 301 326 325 336 336 332 314 281 327 355 324 326 324 327 331 332 324 334 337 325 326 321 314 308 294 304 301 279
192 193 234 245 214 236 209 234 231 289 287 276 247 193 184 186 205 216 224 237 265 303 330 333 335 327 319 300 253 238 257 283 305 320 329 333 335 327 347 357 5 357 339 323 311 297 294 306 310
198 211 220 236 215 177 268 227 243 316 302 224 166 186 172 142 231 225 222 249 264 339 347 330 338 322 296 274 231 229 237 256 287 301 315 327 344 334 342 1 1 12 19 9 344 342 325 327 319
196 190 212 184 172 251 240 251 264 291 252 142 169 196 172 118 219 237 235 242 262 318 337 325 329 312 280 260 232 229 265 240 263 292 317 338 353 342 335 359 6 13 22 26 10 11 3 341 335
206 222 173 191 178 221 226 244 243 234 230 198 203 228 244 347 268 235 220 233 273 283 321 326 328 316 286 258 232 218 302 234 251 296 324 337 353 1 354 356 4 14 31 29 21 20 18 6 6
215 212 210 201 192 196 219 240 207 187 203 227 242 254 255 300 309 260 242 254 276 281 298 324 334 328 301 256 230 232 235 218 232 303 327 342 5 17 15 2 3 29 48 43 31 29 19 29 32
223 228 221 204 204 199 223 224 200 244 264 255 253 262 272 294 298 279 255 269 275 272 291 327 344 358 327 272 240 211 181 192 292 334 328 342 13 20 14 7 6 19 32 24 16 19 21 26 41
Height
3190 3190 3189 3189 3191 3190 3189 3191 3189 3188 3187 3185 3185 3185 3186 3185 3186 3190 3187 3188 3190 3193 3194 3196 3197 3199 3199 3201 3202 3203 3204 3204 3205 3206 3207 3208 3209 3209 3210 3210 3211 3211 3210 3209 3211 3212 3212 3211 3211
3193 3193 3192 3191 3192 3191 3193 3192 3191 3190 3187 3186 3185 3184 3184 3184 3185 3187 3188 3189 3191 3194 3196 3197 3198 3199 3200 3202 3203 3204 3205 3206 3206 3207 3208 3208 3209 3210 3211 3211 3211 3211 3212 3211 3212 3214 3213 3213 3212
3196 3195 3196 3194 3194 3194 3196 3195 3193 3192 3189 3188 3187 3185 3184 3183 3184 3187 3189 3191 3192 3194 3196 3198 3199 3200 3202 3202 3203 3204 3205 3206 3207 3208 3208 3209 3209 3210 3211 3211 3212 3212 3212 3212 3213 3214 3214 3214 3214
3197 3198 3199 3198 3197 3197 3197 3197 3195 3194 3192 3190 3188 3187 3187 3186 3187 3189 3190 3192 3194 3196 3197 3198 3200 3201 3202 3203 3204 3205 3205 3206 3207 3208 3209 3209 3209 3210 3211 3212 3212 3212 3212 3212 3214 3214 3213 3215 3215
3199 3200 3200 3201 3201 3200 3199 3199 3198 3196 3193 3192 3190 3189 3188 3188 3189 3191 3192 3193 3196 3197 3198 3199 3201 3202 3203 3204 3205 3206 3207 3207 3208 3208 3209 3210 3211 3210 3210 3211 3211 3212 3213 3213 3214 3214 3215 3215 3216
3200 3202 3202 3204 3204 3203 3202 3201 3200 3198 3196 3195 3193 3191 3191 3190 3191 3192 3194 3195 3196 3198 3199 3200 3201 3202 3204 3205 3206 3207 3208 3208 3208 3209 3209 3210 3211 3211 3211 3211 3211 3211 3213 3213 3214 3214 3213 3212 3215
3201 3202 3203 3204 3205 3205 3204 3203 3202 3201 3199 3198 3196 3194 3194 3193 3193 3194 3195 3196 3197 3198 3200 3201 3202 3203 3204 3204 3206 3207 3209 3208 3208 3209 3209 3210 3211 3211 3211 3211 3212 3212 3212 3213 3213 3215 3214 3215 3216
3202 3204 3204 3204 3205 3206 3205 3204 3203 3202 3202 3200 3199 3198 3197 3195 3194 3194 3196 3197 3199 3200 3202 3203 3204 3204 3205 3205 3206 3206 3208 3209 3209 3209 3210 3210 3211 3211 3211 3212 3212 3212 3212 3212 3213 3213 3214 3215 3216
3203 3204 3204 3205 3205 3206 3205 3205 3205 3204 3203 3202 3201 3200 3200 3198 3197 3195 3196 3198 3200 3201 3203 3204 3205 3206 3207 3206 3206 3207 3207 3207 3209 3210 3210 3210 3210 3211 3211 3212 3211 3211 3212 3213 3213 3213 3214 3214 3215
3203 3204 3205 3204 3205 3205 3205 3205 3206 3206 3205 3204 3203 3202 3201 3200 3200 3198 3198 3199 3201 3202 3203 3204 3205 3206 3206 3207 3207 3207 3207 3208 3208 3209 3210 3210 3210 3210 3211 3211 3211 3211 3211 3212 3212 3213 3213 3214 3214
3203 3205 3205 3205 3204 3205 3205 3206 3207 3207 3207 3206 3204 3204 3202 3202 3201 3200 3200 3201 3201 3201 3202 3203 3203 3204 3204 3205 3205 3206 3206 3207 3207 3208 3207 3208 3209 3209 3209 3210 3210 3210 3210 3210 3211 3211 3211 3212 3213
3204 3204 3205 3205 3205 3205 3205 3206 3208 3208 3209 3207 3205 3204 3204 3203 3201 3202 3202 3201 3200 3200 3200 3200 3199 3199 3201 3201 3201 3202 3203 3204 3205 3205 3206 3206 3206 3207 3207 3207 3208 3209 3210 3210 3210 3209 3210 3211 3211
3204 3205 3205 3205 3205 3205 3205 3206 3207 3209 3209 3208 3206 3205 3205 3204 3202 3202 3201 3201 3200 3199 3198 3199 3200 3199 3198 3198 3198 3197 3198 3200 3202 3203 3203 3203 3203 3203 3205 3205 3206 3207 3207 3207 3207 3207 3207 3208 3209
3203 3205 3205 3206 3205 3206 3205 3206 3206 3207 3208 3208 3207 3206 3205 3204 3203 3202 3201 3200 3199 3198 3198 3200 3199 3197 3198 3196 3191 3193 3194 3195 3195 3197 3199 3199 3199 3200 3201 3201 3203 3203 3205 3205 3206 3206 3206 3206 3207
3204 3205 3205 3206 3205 3206 3205 3205 3206 3206 3206 3206 3207 3206 3205 3204 3203 3203 3200 3199 3198 3197 3198 3198 3198 3198 3195 3190 3189 3187 3186 3187 3190 3191 3192 3195 3195 3195 3198 3198 3199 3200 3201 3202 3203 3203 3203 3203 3203
3203 3205 3205 3205 3204 3204 3205 3204 3205 3205 3205 3205 3206 3206 3205 3203 3203 3203 3201 3199 3198 3197 3198 3198 3197 3197 3192 3188 3186 3183 3181 3182 3184 3187 3186 3191 3192 3193 3195 3195 3196 3197 3198 3199 3199 3199 3198 3198 3198
3202 3204 3203 3203 3202 3202 3203 3202 3203 3203 3203 3204 3204 3205 3204 3203 3203 3202 3201 3200 3198 3197 3196 3197 3195 3192 3189 3186 3183 3179 3178 3180 3182 3183 3187 3188 3190 3190 3191 3192 3193 3193 3194 3194 3194 3194 3193 3194 3194
3201 3202 3202 3201 3200 3198 3199 3200 3202 3202 3202 3202 3202 3203 3203 3202 3202 3202 3201 3200 3198 3196 3195 3194 3192 3190 3187 3184 3180 3174 3172 3177 3181 3184 3187 3187 3189 3189 3191 3190 3189 3190 3190 3189 3189 3189 3188 3189 3188
3199 3200 3200 3200 3198 3197 3197 3198 3200 3201 3200 3200 3199 3200 3202 3202 3201 3201 3200 3199 3198 3196 3194 3195 3192 3190 3186 3182 3178 3168 3168 3175 3182 3185 3187 3188 3189 3185 3188 3188 3187 3186 3186 3185 3185 3184 3183 3183 3182
3197 3199 3199 3199 3197 3196 3196 3197 3198 3199 3199 3198 3196 3197 3200 3200 3200 3199 3198 3198 3197 3196 3193 3192 3190 3190 3185 3182 3179 3176 3173 3178 3185 3187 3187 3188 3187 3186 3185 3185 3184 3183 3182 3181 3180 3179 3177 3177 3176
3195 3196 3197 3198 3197 3197 3196 3196 3197 3197 3196 3194 3191 3190 3194 3197 3198 3198 3197 3197 3196 3196 3194 3191 3189 3188 3185 3183 3181 3181 3183 3185 3186 3186 3186 3184 3184 3183 3181 3180 3179 3179 3178 3176 3175 3173 3173 3172 3171
3193 3194 3195 3196 3196 3196 3196 3195 3194 3194 3193 3191 3188 3185 3188 3193 3195 3196 3196 3196 3195 3194 3193 3191 3189 3187 3185 3184 3182 3182 3184 3184 3184 3183 3183 3183 3181 3179 3177 3176 3175 3174 3173 3172 3170 3169 3168 3168 3167
3191 3192 3193 3194 3195 3195 3195 3195 3192 3191 3191 3190 3188 3188 3189 3191 3193 3195 3195 3194 3193 3192 3191 3189 3187 3186 3184 3184 3183 3183 3183 3184 3183 3183 3181 3181 3179 3176 3175 3174 3171 3170 3169 3168 3167 3165 3165 3164 3164
3189 3191 3192 3192 3193 3193 3192 3193 3190 3190 3189 3188 3189 3189 3188 3188 3190 3192 3193 3192 3192 3191 3190 3188 3186 3185 3184 3183 3183 3181 3181 3182 3183 3183 3182 3180 3177 3175 3174 3172 3170 3168 3167 3166 3165 3164 3163 3162 3161
3187 3189 3190 3191 3190 3190 3190 3191 3188 3188 3186 3187 3187 3187 3187 3188 3188 3190 3192 3191 3191 3191 3190 3187 3186 3184 3182 3181 3181 3181 3181 3182 3182 3182 3181 3178 3176 3174 3173 3172 3170 3168 3166 3165 3164 3162 3161 3160 3160
3184 3187 3188 3189 3189 3189 3189 3188 3187 3185 3184 3184 3184 3185 3186 3187 3188 3190 3191 3191 3191 3190 3189 3187 3184 3183 3181 3179 3179 3180 3179 3179 3181 3181 3180 3179 3176 3174 3173 3171 3170 3168 3166 3165 3164 3161 3160 3159 3158
3182 3184 3186 3187 3188 3188 3187 3186 3185 3184 3184 3183 3183 3184 3185 3186 3187 3188 3189 3190 3190 3189 3187 3185 3183 3180 3178 3176 3176 3178 3179 3179 3180 3180 3179 3177 3174 3173 3172 3171 3169 3167 3166 3165 3164 3161 3158 3157 3157
3179 3181 3184 3185 3186 3186 3185 3184 3183 3183 3183 3183 3183 3183 3183 3185 3186 3184 3185 3186 3187 3188 3186 3184 3181 3178 3176 3173 3173 3172 3176 3178 3178 3179 3178 3176 3174 3173 3171 3170 3169 3167 3165 3164 3163 3161 3159 3158 3156
3176 3176 3179 3181 3182 3181 3182 3182 3182 3181 3182 3181 3181 3181 3182 3182 3181 3182 3183 3185 3185 3186 3185 3182 3179 3176 3170 3166 3164 3169 3174 3177 3177 3177 3177 3175 3174 3171 3170 3170 3169 3168 3165 3164 3164 3162 3161 3159 3157
3170 3172 3174 3177 3180 3179 3181 3180 3179 3179 3179 3178 3179 3179 3180 3180 3180 3181 3181 3181 3182 3183 3182 3179 3177 3172 3166 3157 3161 3168 3173 3175 3176 3176 3175 3174 3172 3171 3170 3170 3169 3167 3165 3165 3164 3163 3161 3160 3157